• Em Portugal
  • Lista de países
  • Para 7 dias
  • Temperatura da água
  • Mapas de satélite
  • Mapa do tempo
  • Widgets de tempo
  • user-avatar
    Iniciar Sessão

    Previsão horária em Asadabad

    Hoje, 21 Setembro, Quinta-feira

    Tempo Temperatura Precipitação Vento Pressão Humidade
    00:00 +22°C° 0 mm 1 m/s 655 mmHg 30%
    01:00 +20°C° 0 mm 2 m/s 655 mmHg 30%
    02:00 +20°C° 0 mm 2 m/s 655 mmHg 30%
    03:00 +20°C° 0 mm 2 m/s 655 mmHg 31%
    04:00 +19°C° 0 mm 2 m/s 655 mmHg 31%
    05:00 +19°C° 0 mm 2 m/s 655 mmHg 31%
    06:00 +21°C° 0 mm 2 m/s 656 mmHg 29%
    07:00 +23°C° 0 mm 2 m/s 656 mmHg 27%
    08:00 +25°C° 0 mm 2 m/s 657 mmHg 25%
    09:00 +26°C° 0 mm 2 m/s 657 mmHg 22%
    10:00 +28°C° 0 mm 2 m/s 657 mmHg 20%
    11:00 +29°C° 0 mm 2 m/s 657 mmHg 17%
    12:00 +30°C° 0 mm 2 m/s 657 mmHg 17%
    13:00 +30°C° 0 mm 2 m/s 657 mmHg 17%
    14:00 +31°C° 0 mm 3 m/s 657 mmHg 17%
    15:00 +30°C° 0 mm 2 m/s 657 mmHg 18%
    16:00 +30°C° 0 mm 2 m/s 656 mmHg 19%
    17:00 +30°C° 0 mm 2 m/s 656 mmHg 20%
    18:00 +27°C° 0 mm 2 m/s 656 mmHg 24%
    19:00 +25°C° 0 mm 1 m/s 656 mmHg 29%
    20:00 +21°C° 0 mm 0 m/s 655 mmHg 33%
    21:00 +23°C° 0 mm 1 m/s 655 mmHg 32%
    22:00 +22°C° 0 mm 1 m/s 655 mmHg 32%
    23:00 +22°C° 0 mm 1 m/s 656 mmHg 31%

    Amanhã, 22 Setembro, Sexta-feira

    Tempo Temperatura Precipitação Vento Pressão Humidade
    00:00 +21°C° 0 mm 2 m/s 655 mmHg 31%
    01:00 +20°C° 0 mm 2 m/s 655 mmHg 31%
    02:00 +20°C° 0 mm 2 m/s 655 mmHg 32%
    03:00 +19°C° 0 mm 2 m/s 655 mmHg 32%
    04:00 +19°C° 0 mm 2 m/s 655 mmHg 31%
    05:00 +19°C° 0 mm 2 m/s 655 mmHg 31%
    06:00 +21°C° 0 mm 2 m/s 656 mmHg 29%
    07:00 +23°C° 0 mm 2 m/s 657 mmHg 26%
    08:00 +25°C° 0 mm 2 m/s 658 mmHg 24%
    09:00 +26°C° 0 mm 2 m/s 658 mmHg 22%
    10:00 +27°C° 0 mm 2 m/s 658 mmHg 20%
    11:00 +29°C° 0 mm 2 m/s 658 mmHg 18%
    12:00 +29°C° 0 mm 2 m/s 658 mmHg 17%
    13:00 +30°C° 0 mm 2 m/s 658 mmHg 17%
    14:00 +30°C° 0 mm 3 m/s 657 mmHg 17%
    15:00 +30°C° 0 mm 3 m/s 657 mmHg 18%
    16:00 +30°C° 0 mm 2 m/s 657 mmHg 18%
    17:00 +29°C° 0 mm 2 m/s 657 mmHg 19%
    18:00 +27°C° 0 mm 2 m/s 657 mmHg 24%
    19:00 +25°C° 0 mm 1 m/s 657 mmHg 28%
    20:00 +21°C° 0 mm 0 m/s 656 mmHg 33%
    21:00 +22°C° 0 mm 1 m/s 656 mmHg 32%
    22:00 +22°C° 0 mm 1 m/s 656 mmHg 31%
    23:00 +22°C° 0 mm 1 m/s 656 mmHg 31%

    Depois de amanhã, 23 Setembro, Sábado

    Tempo Temperatura Precipitação Vento Pressão Humidade
    00:00 +21°C° 0 mm 1 m/s 656 mmHg 31%
    01:00 +20°C° 0 mm 2 m/s 656 mmHg 31%
    02:00 +20°C° 0 mm 2 m/s 656 mmHg 31%
    03:00 +19°C° 0 mm 2 m/s 656 mmHg 32%
    04:00 +19°C° 0 mm 2 m/s 656 mmHg 32%
    05:00 +19°C° 0 mm 2 m/s 656 mmHg 33%
    06:00 +21°C° 0 mm 2 m/s 657 mmHg 30%
    07:00 +23°C° 0 mm 2 m/s 658 mmHg 28%
    08:00 +25°C° 0 mm 1 m/s 658 mmHg 26%
    09:00 +26°C° 0 mm 2 m/s 659 mmHg 23%
    10:00 +27°C° 0 mm 2 m/s 659 mmHg 21%
    11:00 +29°C° 0 mm 2 m/s 659 mmHg 19%
    12:00 +29°C° 0 mm 2 m/s 659 mmHg 18%
    13:00 +30°C° 0 mm 2 m/s 659 mmHg 18%
    14:00 +30°C° 0 mm 3 m/s 659 mmHg 17%
    15:00 +30°C° 0 mm 2 m/s 658 mmHg 18%
    16:00 +30°C° 0 mm 2 m/s 658 mmHg 19%
    17:00 +29°C° 0 mm 2 m/s 658 mmHg 19%
    18:00 +27°C° 0 mm 1 m/s 658 mmHg 23%
    19:00 +25°C° 0 mm 1 m/s 658 mmHg 28%
    20:00 +21°C° 0 mm 0 m/s 658 mmHg 32%
    21:00 +22°C° 0 mm 1 m/s 657 mmHg 32%
    22:00 +22°C° 0 mm 1 m/s 657 mmHg 32%
    23:00 +22°C° 0 mm 1 m/s 657 mmHg 31%

    24 Setembro, Domingo

    Tempo Temperatura Precipitação Vento Pressão Humidade
    00:00 +21°C° 0 mm 1 m/s 657 mmHg 32%
    01:00 +21°C° 0 mm 1 m/s 657 mmHg 32%
    02:00 +20°C° 0 mm 1 m/s 657 mmHg 32%
    03:00 +20°C° 0 mm 1 m/s 657 mmHg 33%
    04:00 +20°C° 0 mm 1 m/s 656 mmHg 33%
    05:00 +19°C° 0 mm 2 m/s 656 mmHg 33%
    06:00 +21°C° 0 mm 1 m/s 657 mmHg 30%
    07:00 +23°C° 0 mm 1 m/s 658 mmHg 27%
    08:00 +25°C° 0 mm 1 m/s 659 mmHg 24%
    09:00 +26°C° 0 mm 1 m/s 659 mmHg 22%
    10:00 +27°C° 0 mm 2 m/s 659 mmHg 20%
    11:00 +29°C° 0 mm 2 m/s 659 mmHg 19%
    12:00 +29°C° 0 mm 2 m/s 659 mmHg 18%
    13:00 +30°C° 0 mm 2 m/s 659 mmHg 18%
    14:00 +30°C° 0 mm 3 m/s 658 mmHg 18%
    15:00 +30°C° 0 mm 2 m/s 658 mmHg 18%
    16:00 +30°C° 0 mm 2 m/s 658 mmHg 19%
    17:00 +29°C° 0 mm 2 m/s 658 mmHg 20%
    18:00 +27°C° 0 mm 1 m/s 658 mmHg 24%
    19:00 +25°C° 0 mm 1 m/s 657 mmHg 29%
    20:00 +21°C° 0 mm 0 m/s 657 mmHg 33%
    21:00 +20°C° 0 mm 0 m/s 657 mmHg 33%
    22:00 +22°C° 0 mm 1 m/s 657 mmHg 33%
    23:00 +21°C° 0 mm 1 m/s 657 mmHg 33%

    25 Setembro, Segunda-feira

    Tempo Temperatura Precipitação Vento Pressão Humidade
    00:00 +21°C° 0 mm 1 m/s 657 mmHg 32%
    01:00 +21°C° 0 mm 1 m/s 656 mmHg 32%
    02:00 +20°C° 0 mm 1 m/s 656 mmHg 32%
    03:00 +19°C° 0 mm 2 m/s 656 mmHg 31%
    04:00 +19°C° 0 mm 2 m/s 656 mmHg 31%
    05:00 +19°C° 0 mm 2 m/s 656 mmHg 30%
    06:00 +20°C° 0 mm 2 m/s 657 mmHg 27%
    07:00 +23°C° 0 mm 2 m/s 657 mmHg 24%
    08:00 +25°C° 0 mm 1 m/s 658 mmHg 22%
    09:00 +26°C° 0 mm 2 m/s 658 mmHg 20%
    10:00 +28°C° 0 mm 2 m/s 658 mmHg 18%
    11:00 +29°C° 0 mm 2 m/s 659 mmHg 17%
    12:00 +29°C° 0 mm 2 m/s 658 mmHg 17%
    13:00 +30°C° 0 mm 2 m/s 658 mmHg 16%
    14:00 +30°C° 0 mm 3 m/s 658 mmHg 16%
    15:00 +30°C° 0 mm 2 m/s 658 mmHg 17%
    16:00 +30°C° 0 mm 2 m/s 658 mmHg 18%
    17:00 +29°C° 0 mm 2 m/s 657 mmHg 18%
    18:00 +27°C° 0 mm 1 m/s 657 mmHg 22%
    19:00 +25°C° 0 mm 1 m/s 657 mmHg 26%
    20:00 +21°C° 0 mm 0 m/s 657 mmHg 30%
    21:00 +22°C° 0 mm 1 m/s 657 mmHg 29%
    22:00 +22°C° 0 mm 1 m/s 657 mmHg 29%
    23:00 +22°C° 0 mm 1 m/s 657 mmHg 29%

    26 Setembro, Terça-feira

    Tempo Temperatura Precipitação Vento Pressão Humidade
    00:00 +20°C° 0 mm 2 m/s 656 mmHg 29%
    01:00 +20°C° 0 mm 2 m/s 656 mmHg 29%
    02:00 +19°C° 0 mm 2 m/s 656 mmHg 29%
    03:00 +19°C° 0 mm 2 m/s 656 mmHg 29%
    04:00 +19°C° 0 mm 2 m/s 656 mmHg 28%
    05:00 +19°C° 0 mm 2 m/s 656 mmHg 28%
    06:00 +20°C° 0 mm 2 m/s 656 mmHg 26%
    07:00 +23°C° 0 mm 2 m/s 657 mmHg 24%
    08:00 +25°C° 0 mm 2 m/s 658 mmHg 22%
    09:00 +26°C° 0 mm 2 m/s 658 mmHg 20%
    10:00 +27°C° 0 mm 2 m/s 658 mmHg 18%
    11:00 +29°C° 0 mm 2 m/s 659 mmHg 16%
    12:00 +29°C° 0 mm 2 m/s 658 mmHg 16%
    13:00 +30°C° 0 mm 2 m/s 658 mmHg 15%
    14:00 +31°C° 0 mm 3 m/s 658 mmHg 15%
    15:00 +30°C° 0 mm 2 m/s 658 mmHg 16%
    16:00 +30°C° 0 mm 2 m/s 658 mmHg 16%
    17:00 +29°C° 0 mm 2 m/s 658 mmHg 17%
    18:00 +27°C° 0 mm 1 m/s 658 mmHg 20%
    19:00 +25°C° 0 mm 1 m/s 658 mmHg 24%
    20:00 +23°C° 0 mm 1 m/s 658 mmHg 28%
    21:00 +22°C° 0 mm 1 m/s 658 mmHg 28%
    22:00 +22°C° 0 mm 1 m/s 658 mmHg 27%
    23:00 +21°C° 0 mm 2 m/s 658 mmHg 27%
    Mostrar mais